STARLINK-4568 (53622 NORAD) Tracking and Keplerian Element Data

This shows tracking and keplerian element data for the satellite.

Feedback or suggestion? Click here.




ElementValue
Catalog53622
NameSTARLINK-4568
Epoch Orbit130
Epoch Day324.91667824
Epoch Year2022
RAAN242.3236
Inclination53.2169
Eccentricity0.000166
Argument of Perigee49.6303
Mean Anonmoly124.8046
Mean Motion15.08837333
Decay Rate-0.00018736
L11 53622U 22104AL 22324.91667824 -.00018736 00000+0 -11622-2 0 9993
L22 53622 53.2169 242.3236 0001660 49.6303 124.8046 15.08837333 1306



Live tracking and technical data element details for STARLINK-4568 (NORAD 53622). STARLINK-4568 can be tracked NOW for your location showing map with azimuth and elevation plus other details from your city location.







IsCatalogInMostPopularTable: catalog: 53622, numindb: 2
Update: records affected: 1



GetName: 53622 STARLINK-4568

Hit Count: updated at: Thu, 08 Dec 2022 10:10:16 GMT